Thunderstorms From: 22-05-2018 15:00 Until: 23-05-2018 15:00 warning for: Thunderstorms Level: Yellow info button

Although rather usual in this region, locally or potentially dangerous phenomena are expected. (such as local winds, summer thunderstorms, rising streams or high waves) Be aware and pay attention to the latest weather updates, especially if you carry out activities exposed to weather or close to a stream or shoreline. 


Meteo18 Weather Cam more information Meteo18 Weather Cam


warning for Thunderstorms more information blitzortung!


Rain radar more information rain snow radar


Visit our other weather sites:

Template documentation
and downloads

And another site



Weather Underground History page Text

Daily Summary for November 28, 2017 Units:  English    Metric   Both
« Previous Day
Next Day »
Daily Weekly Monthly Yearly Custom
  High: Low: Average:
Temperature: TemperatureC °F 4.3 °F 5.5 °F
Dew Point: DewpointC °F 3.4 °F 4.3 °F
Humidity: Humidity % 80 % 91 %
Wind Speed: WindSpeedKMH mph 0.0 mph 8.3 mph
Wind Gust: WindSpeedGustKMH mph - -
Wind:- - WSW
Pressure: PressurehPa in 1008.7 in -
Precipitation: 9.1 in    
Historical Graphs
 
 
Tabular Data for November 28, 2017
Time Temperature Dew Point Pressure Wind Wind Speed Wind Gust Humidity Rainfall Rate (Hourly)
TemperatureC °F DewpointC °F PressurehPa in Calm     Humidity % HourlyPrecipMM in
00:02 6.6 °F 3.7 °F 1018.2 in SW 11.3 mph 25.7 mph 82 % 0.0 in
00:12 6.6 °F 3.7 °F 1018.2 in SW 16.1 mph 27.4 mph 82 % 0.0 in
00:17 6.6 °F 3.7 °F 1018.2 in WSW 14.5 mph 29.0 mph 82 % 0.0 in
00:22 6.6 °F 3.7 °F 1017.8 in SW 27.4 mph 29.0 mph 82 % 0.0 in
00:27 6.7 °F 3.8 °F 1017.8 in SW 9.7 mph 29.0 mph 82 % 0.0 in
00:32 6.7 °F 3.8 °F 1017.8 in WSW 20.9 mph 29.0 mph 82 % 0.0 in
00:37 6.7 °F 3.8 °F 1017.8 in West 9.7 mph 29.0 mph 82 % 0.0 in
00:42 6.7 °F 3.8 °F 1017.8 in SW 11.3 mph 30.6 mph 82 % 0.0 in
00:52 6.7 °F 3.8 °F 1017.5 in SW 17.7 mph 30.6 mph 82 % 0.0 in
00:57 6.7 °F 3.8 °F 1017.5 in WSW 12.9 mph 27.4 mph 82 % 0.0 in
01:02 6.7 °F 3.7 °F 1017.5 in SW 9.7 mph 27.4 mph 81 % 0.0 in
01:12 6.8 °F 3.8 °F 1017.2 in SW 14.5 mph 25.7 mph 81 % 0.0 in
01:17 6.8 °F 3.8 °F 1017.2 in South 11.3 mph 27.4 mph 81 % 0.0 in
01:22 6.8 °F 3.8 °F 1017.2 in WSW 17.7 mph 27.4 mph 81 % 0.0 in
01:32 6.9 °F 3.7 °F 1017.2 in SW 12.9 mph 27.4 mph 80 % 0.0 in
01:37 6.8 °F 3.8 °F 1017.2 in SSW 4.8 mph 22.5 mph 81 % 0.0 in
01:42 6.8 °F 3.8 °F 1017.2 in SSW 14.5 mph 22.5 mph 81 % 0.0 in
01:47 6.8 °F 3.8 °F 1016.8 in SSW 9.7 mph 22.5 mph 81 % 0.0 in
01:52 6.8 °F 3.8 °F 1016.8 in WSW 11.3 mph 22.5 mph 81 % 0.0 in
02:02 6.8 °F 3.8 °F 1016.8 in SW 12.9 mph 22.5 mph 81 % 0.0 in
02:12 6.7 °F 3.7 °F 1016.5 in SW 17.7 mph 20.9 mph 81 % 0.0 in
02:17 6.7 °F 3.8 °F 1016.5 in SW 8.0 mph 22.5 mph 82 % 0.0 in
02:22 6.6 °F 3.7 °F 1016.5 in SW 19.3 mph 22.5 mph 82 % 0.0 in
02:27 6.6 °F 3.7 °F 1016.5 in WSW 14.5 mph 24.1 mph 82 % 0.0 in
02:32 6.6 °F 3.7 °F 1016.5 in SW 11.3 mph 24.1 mph 82 % 0.0 in
02:37 6.5 °F 3.8 °F 1016.5 in SW 14.5 mph 22.5 mph 83 % 0.0 in
02:42 6.6 °F 3.9 °F 1016.5 in SW 16.1 mph 22.5 mph 83 % 0.0 in
02:52 6.6 °F 3.7 °F 1016.1 in SW 9.7 mph 22.5 mph 82 % 0.0 in
02:57 6.5 °F 3.8 °F 1016.1 in SSW 11.3 mph 22.5 mph 83 % 0.0 in
03:02 6.4 °F 3.7 °F 1016.1 in South 8.0 mph 22.5 mph 83 % 0.0 in
03:07 6.4 °F 3.7 °F 1015.8 in SW 16.1 mph 22.5 mph 83 % 0.0 in
03:12 6.5 °F 3.8 °F 1015.8 in SW 11.3 mph 22.5 mph 83 % 0.0 in
03:17 6.5 °F 3.8 °F 1015.8 in SSW 14.5 mph 22.5 mph 83 % 0.0 in
03:22 6.4 °F 3.7 °F 1015.8 in SW 19.3 mph 22.5 mph 83 % 0.0 in
03:27 6.5 °F 3.8 °F 1015.5 in SSW 17.7 mph 22.5 mph 83 % 0.0 in
03:32 6.5 °F 3.8 °F 1015.5 in SSW 12.9 mph 22.5 mph 83 % 0.0 in
03:37 6.5 °F 3.8 °F 1015.5 in SW 16.1 mph 20.9 mph 83 % 0.0 in
03:42 6.5 °F 3.8 °F 1015.5 in SW 19.3 mph 20.9 mph 83 % 0.0 in
03:52 6.7 °F 3.8 °F 1015.5 in WSW 12.9 mph 22.5 mph 82 % 0.0 in
03:57 6.7 °F 3.8 °F 1015.1 in SW 14.5 mph 22.5 mph 82 % 0.0 in
04:02 6.7 °F 4.0 °F 1015.1 in SW 11.3 mph 22.5 mph 83 % 0.0 in
04:12 6.7 °F 4.2 °F 1015.1 in WSW 3.2 mph 22.5 mph 84 % 0.0 in
04:17 6.6 °F 4.1 °F 1015.1 in SW 12.9 mph 22.5 mph 84 % 0.0 in
04:22 6.5 °F 4.2 °F 1015.1 in SW 16.1 mph 22.5 mph 85 % 0.0 in
04:27 6.4 °F 4.2 °F 1015.1 in SW 16.1 mph 24.1 mph 86 % 0.3 in
04:32 6.4 °F 4.4 °F 1014.8 in SW 11.3 mph 24.1 mph 87 % 0.3 in
04:37 6.3 °F 4.3 °F 1014.8 in SW 12.9 mph 24.1 mph 87 % 0.5 in
04:47 6.2 °F 4.4 °F 1014.4 in SSW 6.4 mph 24.1 mph 88 % 0.8 in
04:52 6.1 °F 4.4 °F 1014.4 in SW 16.1 mph 24.1 mph 89 % 0.8 in
05:02 6.1 °F 4.4 °F 1014.4 in SW 12.9 mph 24.1 mph 89 % 0.8 in
05:12 5.9 °F 4.4 °F 1014.4 in WSW 19.3 mph 29.0 mph 90 % 1.0 in
05:17 5.9 °F 4.4 °F 1014.4 in SW 17.7 mph 25.7 mph 90 % 1.0 in
05:22 5.8 °F 4.4 °F 1014.1 in SW 14.5 mph 25.7 mph 91 % 1.0 in
05:27 5.8 °F 4.4 °F 1014.1 in WSW 17.7 mph 29.0 mph 91 % 1.0 in
05:32 5.8 °F 4.4 °F 1014.1 in SW 17.7 mph 29.0 mph 91 % 1.0 in
05:42 5.7 °F 4.5 °F 1014.1 in SW 19.3 mph 29.0 mph 92 % 0.8 in
05:47 5.7 °F 4.5 °F 1013.8 in SSW 9.7 mph 25.7 mph 92 % 0.5 in
05:52 5.7 °F 4.5 °F 1014.1 in SSW 17.7 mph 25.7 mph 92 % 0.5 in
05:57 5.7 °F 4.7 °F 1013.8 in SW 3.2 mph 22.5 mph 93 % 0.8 in
06:02 5.7 °F 4.7 °F 1013.8 in SW 17.7 mph 22.5 mph 93 % 0.8 in
06:12 5.6 °F 4.7 °F 1014.1 in WSW 16.1 mph 24.1 mph 94 % 0.8 in
06:17 5.6 °F 4.7 °F 1014.1 in WSW 6.4 mph 24.1 mph 94 % 1.0 in
06:22 5.6 °F 4.7 °F 1014.1 in SW 8.0 mph 24.1 mph 94 % 1.0 in
06:32 5.6 °F 4.7 °F 1014.1 in South 3.2 mph 22.5 mph 94 % 1.3 in
06:37 5.5 °F 4.6 °F 1014.1 in West 3.2 mph 22.5 mph 94 % 1.3 in
06:42 5.5 °F 4.6 °F 1014.1 in WSW 8.0 mph 19.3 mph 94 % 1.5 in
06:52 5.5 °F 4.6 °F 1014.1 in West 4.8 mph 19.3 mph 94 % 1.5 in
07:02 5.5 °F 4.6 °F 1014.1 in West 11.3 mph 14.5 mph 94 % 1.8 in
07:12 5.4 °F 4.5 °F 1013.8 in SW 9.7 mph 17.7 mph 94 % 1.8 in
07:17 5.4 °F 4.5 °F 1013.8 in SW 6.4 mph 16.1 mph 94 % 1.5 in
07:22 5.4 °F 4.5 °F 1013.8 in WSW 8.0 mph 16.1 mph 94 % 1.5 in
07:32 5.4 °F 4.5 °F 1013.4 in WSW 14.5 mph 16.1 mph 94 % 1.5 in
07:37 5.4 °F 4.5 °F 1013.4 in SW 1.6 mph 17.7 mph 94 % 1.3 in
07:42 5.4 °F 4.5 °F 1013.4 in SW 9.7 mph 17.7 mph 94 % 1.3 in
07:52 5.3 °F 4.4 °F 1013.4 in WSW 4.8 mph 17.7 mph 94 % 1.3 in
07:57 5.3 °F 4.4 °F 1013.4 in SW 9.7 mph 17.7 mph 94 % 0.8 in
08:02 5.3 °F 4.4 °F 1013.1 in WSW 6.4 mph 17.7 mph 94 % 0.8 in
08:12 5.3 °F 4.4 °F 1013.1 in West 8.0 mph 22.5 mph 94 % 0.8 in
08:17 5.3 °F 4.4 °F 1013.1 in West 9.7 mph 24.1 mph 94 % 0.8 in
08:22 5.3 °F 4.4 °F 1013.1 in WSW 11.3 mph 24.1 mph 94 % 0.8 in
08:32 5.3 °F 4.4 °F 1013.1 in SSW 11.3 mph 19.3 mph 94 % 1.0 in
08:42 5.3 °F 4.4 °F 1013.1 in SW 16.1 mph 20.9 mph 94 % 0.8 in
08:52 5.4 °F 4.5 °F 1013.1 in WSW 8.0 mph 22.5 mph 94 % 0.8 in
08:57 5.3 °F 4.4 °F 1013.1 in WSW 8.0 mph 22.5 mph 94 % 1.0 in
09:02 5.4 °F 4.7 °F 1013.1 in SW 6.4 mph 22.5 mph 95 % 1.0 in
09:07 5.4 °F 4.7 °F 1013.1 in SW 11.3 mph 17.7 mph 95 % 1.0 in
09:12 5.4 °F 4.5 °F 1013.1 in SW 8.0 mph 17.7 mph 94 % 1.0 in
09:17 5.4 °F 4.5 °F 1012.8 in WSW 17.7 mph 20.9 mph 94 % 0.8 in
09:22 5.4 °F 4.5 °F 1012.8 in SW 12.9 mph 20.9 mph 94 % 0.8 in
09:32 5.4 °F 4.5 °F 1012.8 in WSW 11.3 mph 24.1 mph 94 % 0.8 in
09:37 5.4 °F 4.5 °F 1012.8 in SW 11.3 mph 20.9 mph 94 % 0.8 in
09:42 5.4 °F 4.5 °F 1012.8 in WSW 6.4 mph 20.9 mph 94 % 0.8 in
09:47 5.4 °F 4.5 °F 1012.8 in SW 16.1 mph 25.7 mph 94 % 1.0 in
09:52 5.4 °F 4.5 °F 1012.8 in West 14.5 mph 25.7 mph 94 % 1.0 in
09:57 5.4 °F 4.5 °F 1012.8 in WSW 9.7 mph 25.7 mph 94 % 0.8 in
10:02 5.4 °F 4.5 °F 1012.8 in WSW 24.1 mph 25.7 mph 94 % 0.8 in
10:07 5.4 °F 4.5 °F 1012.8 in WSW 12.9 mph 25.7 mph 94 % 0.8 in
10:12 5.4 °F 4.5 °F 1012.4 in SW 4.8 mph 25.7 mph 94 % 0.8 in
10:17 5.4 °F 4.5 °F 1012.4 in WSW 9.7 mph 24.1 mph 94 % 1.0 in
10:22 5.4 °F 4.5 °F 1012.4 in SW 8.0 mph 24.1 mph 94 % 1.0 in
10:32 5.4 °F 4.5 °F 1012.4 in WSW 11.3 mph 24.1 mph 94 % 0.8 in
10:42 5.4 °F 4.5 °F 1012.4 in WSW 19.3 mph 24.1 mph 94 % 0.8 in
10:47 5.4 °F 4.5 °F 1012.4 in WSW 8.0 mph 20.9 mph 94 % 0.8 in
10:52 5.3 °F 4.4 °F 1012.4 in SW 9.7 mph 20.9 mph 94 % 0.8 in
10:57 5.3 °F 4.4 °F 1012.4 in WSW 14.5 mph 27.4 mph 94 % 1.0 in
11:02 5.3 °F 4.4 °F 1012.4 in SW 1.6 mph 27.4 mph 94 % 1.0 in
11:12 5.3 °F 4.4 °F 1012.4 in WSW 12.9 mph 22.5 mph 94 % 0.8 in
11:17 5.3 °F 4.4 °F 1012.1 in SW 16.1 mph 24.1 mph 94 % 0.8 in
11:22 5.3 °F 4.4 °F 1012.1 in SSW 8.0 mph 24.1 mph 94 % 0.8 in
11:27 5.3 °F 4.4 °F 1012.1 in WSW 8.0 mph 27.4 mph 94 % 0.8 in
11:32 5.3 °F 4.4 °F 1012.1 in WSW 9.7 mph 27.4 mph 94 % 0.8 in
11:37 5.3 °F 4.4 °F 1012.1 in WSW 14.5 mph 24.1 mph 94 % 1.0 in
11:42 5.2 °F 4.3 °F 1011.7 in WSW 9.7 mph 24.1 mph 94 % 1.0 in
11:52 5.2 °F 4.5 °F 1011.7 in WSW 8.0 mph 20.9 mph 95 % 0.8 in
11:57 5.2 °F 4.5 °F 1011.7 in WSW 14.5 mph 20.9 mph 95 % 0.8 in
12:02 5.2 °F 4.5 °F 1011.7 in West 6.4 mph 20.9 mph 95 % 0.8 in
12:12 5.2 °F 4.5 °F 1011.7 in WSW 12.9 mph 20.9 mph 95 % 0.8 in
12:17 5.3 °F 4.6 °F 1011.4 in WSW 4.8 mph 19.3 mph 95 % 0.8 in
12:22 5.3 °F 4.6 °F 1011.4 in West 4.8 mph 19.3 mph 95 % 0.8 in
12:32 5.2 °F 4.5 °F 1011.4 in WSW 14.5 mph 19.3 mph 95 % 1.0 in
12:37 5.3 °F 4.6 °F 1011.4 in WSW 8.0 mph 22.5 mph 95 % 1.0 in
12:42 5.3 °F 4.6 °F 1011.1 in SW 3.2 mph 22.5 mph 95 % 1.0 in
12:47 5.3 °F 4.6 °F 1011.1 in SW 8.0 mph 19.3 mph 95 % 1.3 in
12:52 5.3 °F 4.6 °F 1011.1 in West 6.4 mph 19.3 mph 95 % 1.3 in
12:57 5.3 °F 4.6 °F 1011.1 in WSW 4.8 mph 19.3 mph 95 % 1.3 in
13:02 5.3 °F 4.6 °F 1011.1 in WSW 4.8 mph 16.1 mph 95 % 1.0 in
13:12 5.3 °F 4.6 °F 1010.7 in WSW 4.8 mph 16.1 mph 95 % 1.0 in
13:17 5.3 °F 4.6 °F 1010.7 in SW 4.8 mph 14.5 mph 95 % 0.8 in
13:22 5.3 °F 4.6 °F 1010.7 in West 4.8 mph 14.5 mph 95 % 0.8 in
13:32 5.4 °F 4.7 °F 1010.4 in WSW 3.2 mph 12.9 mph 95 % 0.5 in
13:37 5.4 °F 4.7 °F 1010.4 in WSW 6.4 mph 12.9 mph 95 % 0.5 in
13:42 5.4 °F 4.7 °F 1010.4 in SW 3.2 mph 12.9 mph 95 % 0.5 in
13:47 5.4 °F 4.7 °F 1010.4 in West 1.6 mph 11.3 mph 95 % 0.3 in
13:52 5.5 °F 4.8 °F 1010.4 in WSW 1.6 mph 11.3 mph 95 % 0.3 in
14:02 5.5 °F 4.8 °F 1010.4 in SW 6.4 mph 11.3 mph 95 % 0.3 in
14:17 5.6 °F 4.7 °F 1010.0 in SW 6.4 mph 12.9 mph 94 % 0.0 in
14:22 5.6 °F 4.7 °F 1010.0 in West 4.8 mph 12.9 mph 94 % 0.0 in
14:32 5.7 °F 4.8 °F 1010.0 in West 3.2 mph 12.9 mph 94 % 0.0 in
14:37 5.7 °F 4.8 °F 1010.0 in West 8.0 mph 14.5 mph 94 % 0.0 in
14:42 5.7 °F 4.8 °F 1010.0 in West 4.8 mph 14.5 mph 94 % 0.0 in
14:52 5.7 °F 4.8 °F 1009.7 in West 4.8 mph 14.5 mph 94 % 0.0 in
15:02 5.8 °F 4.9 °F 1010.0 in West 4.8 mph 16.1 mph 94 % 0.0 in
15:07 5.9 °F 5.0 °F 1009.7 in West 6.4 mph 9.7 mph 94 % 0.0 in
15:12 5.9 °F 5.0 °F 1009.7 in WSW 1.6 mph 9.7 mph 94 % 0.0 in
15:22 6.0 °F 5.1 °F 1009.7 in West 4.8 mph 11.3 mph 94 % 0.0 in
15:32 6.0 °F 5.1 °F 1009.7 in WSW 8.0 mph 11.3 mph 94 % 0.0 in
15:37 6.0 °F 5.0 °F 1009.7 in WSW 8.0 mph 12.9 mph 93 % 0.0 in
15:42 5.9 °F 4.9 °F 1009.7 in SW 4.8 mph 12.9 mph 93 % 0.0 in
15:47 5.9 °F 4.9 °F 1009.7 in SW 4.8 mph 9.7 mph 93 % 0.0 in
15:52 5.8 °F 4.8 °F 1009.7 in Calm   9.7 mph 93 % 0.0 in
16:02 5.8 °F 4.9 °F 1009.7 in Calm   9.7 mph 94 % 0.0 in
16:07 5.9 °F 5.0 °F 1009.7 in WSW 1.6 mph 8.0 mph 94 % 0.0 in
16:17 5.9 °F 5.0 °F 1009.7 in Calm   6.4 mph 94 % 0.0 in
16:22 5.9 °F 4.9 °F 1009.7 in Calm   6.4 mph 93 % 0.0 in
16:27 6.0 °F 5.1 °F 1009.7 in SW 1.6 mph 3.2 mph 94 % 0.0 in
16:42 5.7 °F 4.7 °F 1009.7 in SW 1.6 mph 4.8 mph 93 % 0.0 in
16:47 5.6 °F 4.6 °F 1009.4 in Calm   4.8 mph 93 % 0.0 in
16:57 5.4 °F 4.5 °F 1009.4 in WSW 3.2 mph 4.8 mph 94 % 0.0 in
17:02 5.3 °F 4.4 °F 1009.4 in Calm   4.8 mph 94 % 0.0 in
17:07 5.2 °F 4.3 °F 1009.4 in West 1.6 mph 4.8 mph 94 % 0.0 in
17:17 5.2 °F 4.3 °F 1009.4 in West 4.8 mph 12.9 mph 94 % 0.0 in
17:22 5.2 °F 4.3 °F 1009.4 in SW 4.8 mph 12.9 mph 94 % 0.0 in
17:32 5.2 °F 4.3 °F 1009.4 in WSW 3.2 mph 12.9 mph 94 % 0.0 in
17:37 5.2 °F 4.3 °F 1009.7 in SW 4.8 mph 14.5 mph 94 % 0.0 in
17:42 5.2 °F 4.3 °F 1009.4 in SW 1.6 mph 14.5 mph 94 % 0.0 in
17:52 5.1 °F 4.2 °F 1009.4 in SW 3.2 mph 8.0 mph 94 % 0.0 in
18:12 5.1 °F 4.2 °F 1009.4 in SSW 4.8 mph 12.9 mph 94 % 0.0 in
18:22 4.9 °F 4.2 °F 1009.4 in SW 6.4 mph 11.3 mph 95 % 0.0 in
18:27 4.8 °F 4.1 °F 1009.4 in SSW 6.4 mph 11.3 mph 95 % 0.0 in
18:32 4.7 °F 4.0 °F 1009.4 in SSW 4.8 mph 11.3 mph 95 % 0.0 in
18:42 4.7 °F 4.0 °F 1009.4 in SSW 3.2 mph 8.0 mph 95 % 0.0 in
18:47 4.7 °F 4.1 °F 1009.4 in SW 1.6 mph 12.9 mph 96 % 0.0 in
18:52 4.8 °F 4.2 °F 1009.4 in SW 9.7 mph 12.9 mph 96 % 0.0 in
19:02 4.8 °F 4.2 °F 1009.4 in SSW 8.0 mph 12.9 mph 96 % 0.0 in
19:07 4.8 °F 4.2 °F 1009.4 in SW 3.2 mph 12.9 mph 96 % 0.0 in
19:17 4.8 °F 4.2 °F 1009.4 in SW 4.8 mph 12.9 mph 96 % 0.0 in
19:22 4.8 °F 4.2 °F 1009.4 in SW 8.0 mph 12.9 mph 96 % 0.0 in
19:32 4.9 °F 4.3 °F 1009.4 in SW 4.8 mph 16.1 mph 96 % 0.0 in
19:42 4.9 °F 4.3 °F 1009.4 in WNW 3.2 mph 14.5 mph 96 % 0.0 in
19:47 4.9 °F 4.3 °F 1009.4 in SW 6.4 mph 14.5 mph 96 % 0.0 in
19:57 4.9 °F 4.2 °F 1009.4 in WSW 14.5 mph 17.7 mph 95 % 0.0 in
20:02 4.9 °F 4.2 °F 1009.4 in WSW 12.9 mph 17.7 mph 95 % 0.0 in
20:07 4.9 °F 4.2 °F 1009.4 in West 6.4 mph 17.7 mph 95 % 0.0 in
20:12 4.9 °F 4.2 °F 1009.4 in West 4.8 mph 17.7 mph 95 % 0.0 in
20:17 4.9 °F 4.2 °F 1009.4 in West 8.0 mph 16.1 mph 95 % 0.3 in
20:32 4.9 °F 4.2 °F 1009.0 in SSW 3.2 mph 9.7 mph 95 % 0.3 in
20:42 4.8 °F 4.1 °F 1009.4 in WSW 8.0 mph 11.3 mph 95 % 0.3 in
20:52 4.7 °F 4.0 °F 1009.0 in SSW 6.4 mph 8.0 mph 95 % 0.3 in
20:57 4.7 °F 4.0 °F 1009.0 in SW 3.2 mph 11.3 mph 95 % 0.3 in
21:02 4.7 °F 4.0 °F 1009.0 in West 1.6 mph 11.3 mph 95 % 0.3 in
21:12 4.8 °F 4.1 °F 1009.0 in WSW 1.6 mph 11.3 mph 95 % 0.3 in
21:17 4.8 °F 4.1 °F 1009.0 in Calm   11.3 mph 95 % 0.0 in
21:22 4.8 °F 4.1 °F 1009.0 in SW 1.6 mph 11.3 mph 95 % 0.0 in
21:32 4.7 °F 4.0 °F 1009.0 in WSW 3.2 mph 8.0 mph 95 % 0.0 in
21:37 4.6 °F 3.9 °F 1009.0 in SW 1.6 mph 8.0 mph 95 % 0.0 in
21:42 4.6 °F 3.9 °F 1009.0 in WSW 1.6 mph 8.0 mph 95 % 0.0 in
21:47 4.6 °F 3.9 °F 1009.0 in SW 3.2 mph 6.4 mph 95 % 0.0 in
21:52 4.6 °F 3.9 °F 1009.0 in WSW 4.8 mph 6.4 mph 95 % 0.0 in
21:57 4.7 °F 4.0 °F 1008.7 in West 4.8 mph 9.7 mph 95 % 0.0 in
22:02 4.7 °F 4.0 °F 1008.7 in WSW 1.6 mph 9.7 mph 95 % 0.0 in
22:07 4.7 °F 4.0 °F 1009.0 in WSW 3.2 mph 9.7 mph 95 % 0.0 in
22:17 4.7 °F 4.0 °F 1009.0 in West 1.6 mph 6.4 mph 95 % 0.0 in
22:27 4.7 °F 4.0 °F 1009.0 in SW 3.2 mph 6.4 mph 95 % 0.0 in
22:37 4.7 °F 4.0 °F 1009.0 in WSW 3.2 mph 6.4 mph 95 % 0.0 in
22:42 4.7 °F 4.0 °F 1009.0 in Calm   6.4 mph 95 % 0.0 in
22:52 4.7 °F 4.0 °F 1009.0 in West 1.6 mph 4.8 mph 95 % 0.0 in
23:02 4.6 °F 3.9 °F 1009.0 in West 3.2 mph 3.2 mph 95 % 0.0 in
23:07 4.6 °F 3.9 °F 1009.0 in Calm   3.2 mph 95 % 0.0 in
23:12 4.6 °F 3.9 °F 1009.0 in West 3.2 mph 3.2 mph 95 % 0.0 in
23:17 4.6 °F 3.9 °F 1009.0 in Calm   3.2 mph 95 % 0.0 in
23:22 4.6 °F 3.9 °F 1009.0 in Calm   3.2 mph 95 % 0.0 in
23:27 4.6 °F 3.9 °F 1009.0 in WNW 1.6 mph 3.2 mph 95 % 0.0 in
23:32 4.5 °F 3.8 °F 1009.0 in West 1.6 mph 3.2 mph 95 % 0.0 in
23:42 4.4 °F 3.5 °F 1009.0 in WSW 1.6 mph 4.8 mph 94 % 0.0 in
23:52 4.4 °F 3.5 °F 1009.0 in West 1.6 mph 3.2 mph 94 % 0.0 in
23:57 4.3 °F 3.4 °F 1009.0 in WNW 3.2 mph 4.8 mph 94 % 0.0 in
Meteo18
Compliments of Weather Underground - 4 mb

Script developed by  Jim McMurry - jmcmurry@mwt.net Adapted for the template by  Wim van der Kuil - Leuven-Template.eu

You find our weather info also at:

European Weather Network

Weather Underground

Equipment we use:

Weather-station
Davis Vue

Weather-program
Meteobridge

Weather-server
Raspberry PI 2 B+

Provider
1 and 1

Davis Vue

Meteobridge

Raspberry PI 2 B+

1 and 1